Weather History for Charlevoix, MI

Change the Weather History Date:

Sunday, November 24, 2013

  Actual Average Record
Temperature  
Mean Temperature 22 °F -  
Max Temperature 28 °F 37 °F 62 °F (2001)
Min Temperature 19 °F 31 °F 12 °F (2005)
Degree Days  
Heating Degree Days 44    
Moisture  
Dew Point 10 °F    
Average Humidity 64    
Maximum Humidity 78    
Minimum Humidity 48    
Precipitation  
Precipitation 0.00 in - - ()
Sea Level Pressure  
Sea Level Pressure 30.43 in    
Wind  
Wind Speed 14 mph (West)    
Max Wind Speed 22 mph    
Max Gust Speed 30 mph    
Visibility 9 miles    
Events Snow    
Averages and records for this station are not official NWS values.
T = Trace of Precipitation, MM = Missing Value Source: NWS Daily Summary

Daily Weather History Graph

Daily Weather History Graph

Search for Another Location

Airport:

Trip Planner

Search our weather history database for the weather conditions in past years. The results will help you decide how hot, cold, wet, or windy it might be!

Date:

Astronomy

Nov. 24, 2013 Rise Set
Actual Time 7:51 AM EST 5:03 PM EST
Civil Twilight 7:19 AM EST 5:36 PM EST
Nautical Twilight 6:42 AM EST 6:12 PM EST
Astronomical Twilight 6:07 AM EST 6:48 PM EST
Moon 11:38 PM EST (11/24) 12:31 PM EST (11/24)
Length of Visible Light 10h 17m
Length of Day
9h 11m
Waning Gibbous, 61% of the Moon is Illuminated
Nov 24
Waning Gibbous
Nov 25
Last Quarter
Dec 2
New
Dec 9
First Quarter
Dec 17
Full

Hourly Weather History & Observations

Time (EST) Temp. Windchill Dew Point Humidity Pressure Visibility Wind Dir Wind Speed Gust Speed Precip Events Conditions
12:15 AM 19.0 °F 4.0 °F 10.0 °F 68% 30.51 in 7.0 mi NW 17.3 mph 25.3 mph N/A Snow Light Snow
12:34 AM 19.2 °F 2.6 °F 9.3 °F 65% 30.50 in 7.0 mi NNW 21.9 mph 29.9 mph N/A   Mostly Cloudy
12:55 AM 19.2 °F 4.7 °F 6.6 °F 58% 30.50 in 10.0 mi NNW 16.1 mph 25.3 mph N/A   Mostly Cloudy
1:15 AM 19.4 °F 3.2 °F 7.3 °F 60% 30.50 in 10.0 mi NNW 20.7 mph 27.6 mph N/A   Overcast
1:34 AM 19.2 °F 4.3 °F 6.6 °F 58% 30.50 in 10.0 mi NNW 17.3 mph 24.2 mph N/A   Mostly Cloudy
1:55 AM 19.6 °F 5.7 °F 9.7 °F 65% 30.50 in 10.0 mi NNW 15.0 mph 26.5 mph N/A   Mostly Cloudy
2:14 AM 19.2 °F 3.4 °F 5.5 °F 55% 30.51 in 10.0 mi NW 19.6 mph 28.8 mph N/A   Overcast
2:35 AM 19.2 °F 5.3 °F 2.3 °F 48% 30.50 in 10.0 mi NNW 15.0 mph 20.7 mph N/A   Mostly Cloudy
2:55 AM 19.2 °F 5.8 °F 2.8 °F 49% 30.51 in 10.0 mi NNW 13.8 mph 24.2 mph N/A   Mostly Cloudy
3:14 AM 19.2 °F 4.7 °F 3.2 °F 50% 30.51 in 10.0 mi NW 16.1 mph 28.8 mph N/A   Overcast
3:35 AM 19.0 °F 5.6 °F 3.2 °F 50% 30.51 in 10.0 mi NNW 13.8 mph 23.0 mph N/A   Scattered Clouds
3:55 AM 19.0 °F 4.0 °F 4.5 °F 53% 30.50 in 10.0 mi North 17.3 mph 23.0 mph N/A   Mostly Cloudy
4:15 AM 19.0 °F 6.8 °F 3.0 °F 50% 30.50 in 10.0 mi NNW 11.5 mph 23.0 mph N/A   Overcast
4:35 AM 19.2 °F 4.7 °F 4.3 °F 52% 30.50 in 10.0 mi NW 16.1 mph 20.7 mph N/A   Overcast
4:54 AM 19.2 °F 5.3 °F 4.6 °F 53% 30.50 in 7.0 mi NNW 15.0 mph 19.6 mph N/A   Overcast
5:15 AM 19.2 °F 5.8 °F 5.4 °F 55% 30.51 in 10.0 mi NW 13.8 mph 18.4 mph N/A   Overcast
5:35 AM 19.2 °F 5.3 °F 6.1 °F 57% 30.52 in 10.0 mi NNW 15.0 mph 23.0 mph N/A   Overcast
5:54 AM 19.2 °F 7.0 °F 4.6 °F 53% 30.52 in 10.0 mi NNW 11.5 mph 20.7 mph N/A   Overcast
6:15 AM 19.4 °F 4.5 °F 6.6 °F 58% 30.52 in 7.0 mi NW 17.3 mph 20.7 mph N/A   Overcast
6:35 AM 19.4 °F 6.0 °F 6.4 °F 57% 30.53 in 7.0 mi NNW 13.8 mph 20.7 mph N/A   Overcast
6:54 AM 19.4 °F 6.6 °F 6.8 °F 58% 30.53 in 10.0 mi NNW 12.7 mph 24.2 mph N/A   Overcast
7:15 AM 19.2 °F 4.7 °F 9.1 °F 65% 30.52 in 7.0 mi NNW 16.1 mph 20.7 mph N/A Snow Light Snow
7:35 AM 19.4 °F 7.2 °F 7.5 °F 60% 30.53 in 10.0 mi NNW 11.5 mph 20.7 mph N/A   Overcast
7:54 AM 19.4 °F 6.6 °F 7.0 °F 59% 30.53 in 10.0 mi North 12.7 mph 19.6 mph N/A   Overcast
8:15 AM 19.8 °F 6.5 °F 7.7 °F 60% 30.53 in 7.0 mi NNW 13.8 mph 23.0 mph N/A   Overcast
8:35 AM 19.6 °F 6.2 °F 7.9 °F 60% 30.53 in 10.0 mi NNW 13.8 mph 19.6 mph N/A   Overcast
8:54 AM 19.8 °F 6.5 °F 8.2 °F 61% 30.54 in 10.0 mi NNW 13.8 mph 20.7 mph N/A   Overcast
9:15 AM 19.9 °F 10.1 °F 8.2 °F 61% 30.54 in 10.0 mi NNW 8.1 mph 18.4 mph N/A   Overcast
9:34 AM 19.4 °F 7.9 °F 10.8 °F 69% 30.54 in 2.5 mi NNW 10.4 mph 17.3 mph N/A Snow Light Snow
9:55 AM 20.1 °F 7.5 °F 9.9 °F 64% 30.54 in 4.0 mi NW 12.7 mph 18.4 mph N/A Snow Light Snow
10:15 AM 20.1 °F 8.8 °F 10.8 °F 67% 30.54 in 4.0 mi NNW 10.4 mph - N/A Snow Light Snow
10:34 AM 20.3 °F 9.0 °F 11.1 °F 68% 30.54 in 5.0 mi WNW 10.4 mph 19.6 mph N/A Snow Light Snow
10:55 AM 20.1 °F 8.1 °F 12.2 °F 71% 30.54 in 3.0 mi NW 11.5 mph 17.3 mph N/A Snow Light Snow
11:15 AM 21.0 °F 11.4 °F 13.6 °F 73% 30.54 in 10.0 mi NW 8.1 mph 16.1 mph N/A Snow Light Snow
11:34 AM 20.5 °F 9.2 °F 14.5 °F 78% 30.52 in 1.8 mi WNW 10.4 mph - N/A Snow Light Snow
11:55 AM 21.0 °F 8.6 °F 10.6 °F 64% 30.52 in 10.0 mi West 12.7 mph - N/A   Overcast
12:14 PM 21.2 °F 10.1 °F 10.8 °F 64% 30.51 in 10.0 mi West 10.4 mph - N/A   Overcast
12:35 PM 21.2 °F 10.9 °F 10.8 °F 64% 30.51 in 7.0 mi West 9.2 mph - N/A Snow Light Snow
12:55 PM 21.7 °F 9.6 °F 11.3 °F 64% 30.49 in 10.0 mi West 12.7 mph - N/A   Overcast
1:14 PM 21.6 °F 9.9 °F 12.0 °F 67% 30.49 in 7.0 mi West 11.5 mph - N/A Snow Light Snow
1:35 PM 21.6 °F 12.1 °F 10.6 °F 63% 30.48 in 10.0 mi WSW 8.1 mph - N/A Snow Light Snow
1:55 PM 21.7 °F 11.5 °F 11.7 °F 65% 30.48 in 10.0 mi WSW 9.2 mph - N/A Snow Light Snow
2:14 PM 21.9 °F 12.5 °F 12.7 °F 68% 30.47 in 5.0 mi WSW 8.1 mph - N/A Snow Light Snow
2:35 PM 22.5 °F 13.2 °F 12.6 °F 66% 30.47 in 10.0 mi SSW 8.1 mph - N/A   Overcast
2:55 PM 21.2 °F 12.6 °F 15.4 °F 78% 30.46 in 7.0 mi SW 6.9 mph - N/A Snow Light Snow
3:14 PM 21.7 °F 11.5 °F 14.9 °F 75% 30.46 in 4.0 mi SW 9.2 mph - N/A Snow Light Snow
3:35 PM 22.1 °F 11.3 °F 12.7 °F 67% 30.45 in 10.0 mi SW 10.4 mph - N/A Snow Light Snow
3:55 PM 22.5 °F 12.4 °F 12.9 °F 67% 30.43 in 10.0 mi SW 9.2 mph - N/A   Overcast
4:15 PM 22.5 °F 14.1 °F 13.5 °F 68% 30.43 in 7.0 mi SSW 6.9 mph - N/A Snow Light Snow
4:35 PM 22.1 °F 12.0 °F 13.3 °F 69% 30.42 in 10.0 mi SSW 9.2 mph - N/A   Overcast
4:54 PM 22.3 °F 13.0 °F 13.1 °F 68% 30.42 in 10.0 mi South 8.1 mph - N/A   Overcast
5:15 PM 22.1 °F 12.8 °F 12.7 °F 67% 30.40 in 10.0 mi SSW 8.1 mph - N/A   Mostly Cloudy
5:35 PM 21.7 °F 13.2 °F 12.6 °F 68% 30.39 in 10.0 mi South 6.9 mph - N/A   Mostly Cloudy
5:54 PM 21.9 °F 11.0 °F 12.0 °F 66% 30.38 in 10.0 mi South 10.4 mph - N/A   Overcast
6:15 PM 22.1 °F 10.0 °F 12.2 °F 66% 30.37 in 10.0 mi SSW 12.7 mph 16.1 mph N/A   Overcast
6:35 PM 22.1 °F 12.8 °F 11.3 °F 63% 30.35 in 10.0 mi South 8.1 mph - N/A   Overcast
6:54 PM 22.1 °F 11.3 °F 11.7 °F 64% 30.34 in 10.0 mi South 10.4 mph - N/A   Overcast
7:15 PM 21.9 °F 9.8 °F 11.7 °F 65% 30.33 in 10.0 mi South 12.7 mph 18.4 mph N/A   Overcast
7:35 PM 20.8 °F 9.7 °F 13.5 °F 73% 30.32 in 5.0 mi South 10.4 mph 17.3 mph N/A Snow Light Snow
7:54 PM 20.3 °F 8.3 °F 12.7 °F 73% 30.31 in 10.0 mi South 11.5 mph 19.6 mph N/A   Overcast
8:15 PM 21.2 °F 8.3 °F 11.7 °F 67% 30.30 in 10.0 mi South 13.8 mph 20.7 mph N/A   Overcast
8:34 PM 21.6 °F 9.3 °F 11.7 °F 66% 30.28 in 10.0 mi South 12.7 mph 19.6 mph N/A   Overcast
8:55 PM 21.7 °F 10.8 °F 11.7 °F 65% 30.26 in 10.0 mi South 10.4 mph 23.0 mph N/A   Overcast
9:15 PM 21.6 °F 9.3 °F 11.8 °F 66% 30.24 in 10.0 mi South 12.7 mph 21.9 mph N/A   Mostly Cloudy
9:34 PM 21.6 °F 8.2 °F 12.0 °F 67% 30.22 in 10.0 mi South 15.0 mph 20.7 mph N/A   Scattered Clouds
9:55 PM 21.9 °F 9.2 °F 12.6 °F 67% 30.21 in 10.0 mi South 13.8 mph 17.3 mph N/A   Mostly Cloudy
10:14 PM 22.1 °F 10.0 °F 12.9 °F 68% 30.19 in 10.0 mi South 12.7 mph 18.4 mph N/A   Mostly Cloudy
10:35 PM 22.8 °F 8.9 °F 13.3 °F 67% 30.17 in 10.0 mi South 17.3 mph 23.0 mph N/A   Mostly Cloudy
10:54 PM 23.0 °F 10.6 °F 13.8 °F 68% 30.15 in 10.0 mi South 13.8 mph 20.7 mph N/A   Scattered Clouds
11:15 PM 23.7 °F 11.0 °F 14.9 °F 69% 30.15 in 10.0 mi South 15.0 mph 18.4 mph N/A   Clear
11:35 PM 24.3 °F 13.3 °F 15.6 °F 70% 30.14 in 10.0 mi South 11.5 mph 18.4 mph N/A   Clear
11:54 PM 24.3 °F 17.3 °F 16.3 °F 72% 30.14 in 10.0 mi South 5.8 mph - N/A   Clear